Brookhaven, MS

2:45 AM CDT on August 18, 2017 (GMT -0500)
Brookhaven

Weather History for K1R7 - June, 2014

Change the Weather History Date:

Thursday, June 26, 2014

  Actual Average (KMCB) Record (KMCB)
Temperature  
Mean Temperature 76 °F -  
Max Temperature 84 °F 91 °F 100 °F (1977)
Min Temperature 69 °F 67 °F 47 °F (1980)
Cooling Degree Days 12    
Growing Degree Days 26 (Base 50)    
Moisture  
Dew Point 71 °F    
Average Humidity 92    
Maximum Humidity 100    
Minimum Humidity 70    
Precipitation  
Precipitation 0.46 in - - ()
Sea Level Pressure  
Sea Level Pressure 30.09 in    
Wind  
Wind Speed 3 mph (South)    
Max Wind Speed 17 mph    
Max Gust Speed 24 mph    
Averages and records for this station are not official NWS values.
T = Trace of Precipitation, MM = Missing Value Source: NWS Daily Summary

Daily Weather History Graph

Daily Weather History Graph

Search for Another Location

Airport or City:

Trip Planner

Search our weather history database for the weather conditions in past years. The results will help you decide how hot, cold, wet, or windy it might be!

Date:

Astronomy

Jun. 26, 2014 Rise Set
Actual Time 5:58 AM CDT 8:10 PM CDT
Civil Twilight 5:30 AM CDT 8:38 PM CDT
Nautical Twilight 4:56 AM CDT 9:12 PM CDT
Astronomical Twilight 4:18 AM CDT 9:49 PM CDT
Moon 5:32 AM CDT (6/26) 7:37 PM CDT (6/26)
Length of Visible Light 15h 08m
Length of Day
14h 12m
Waning Crescent, 0% of the Moon is Illuminated
Jun 26
Waning Crescent
Jun 27
New
Jul 5
First Quarter
Jul 12
Full
Jul 18
Last Quarter

Hourly Weather History & Observations

Time (CDT) Temp. Heat Index Dew Point Humidity Pressure Visibility Wind Dir Wind Speed Gust Speed Precip Events Conditions
12:15 AM 69.8 °F - 69.8 °F 100% 30.11 in - South 3.5 mph - N/A   Partly Cloudy
12:35 AM 69.8 °F - 69.8 °F 100% 30.10 in - Calm Calm - N/A   Mostly Cloudy
12:55 AM 69.8 °F - 69.8 °F 100% 30.09 in - SE 3.5 mph - N/A   Partly Cloudy
1:15 AM 69.8 °F - 69.8 °F 100% 30.09 in - SSE 3.5 mph - N/A   Partly Cloudy
1:35 AM 69.8 °F - 69.8 °F 100% 30.09 in - SSE 4.6 mph - N/A   Scattered Clouds
1:55 AM 69.8 °F - 69.8 °F 100% 30.08 in - SSE 3.5 mph - N/A   Mostly Cloudy
2:15 AM 69.8 °F - 69.8 °F 100% 30.08 in - SSE 4.6 mph - N/A   Scattered Clouds
2:35 AM 69.8 °F - 69.8 °F 100% 30.07 in - SSE 4.6 mph - N/A   Scattered Clouds
3:15 AM 69.8 °F - 69.8 °F 100% 30.07 in - SE 4.6 mph - N/A   Mostly Cloudy
4:15 AM 69.8 °F - 69.8 °F 100% 30.06 in - Calm Calm - N/A   Partly Cloudy
4:35 AM 69.8 °F - 69.8 °F 100% 30.06 in - Calm Calm - N/A   Clear
4:55 AM 69.8 °F - 69.8 °F 100% 30.06 in - Calm Calm - N/A   Clear
5:15 AM 69.8 °F - 69.8 °F 100% 30.07 in - Calm Calm - N/A   Clear
5:35 AM 69.8 °F - 69.8 °F 100% 30.08 in - SSW 3.5 mph - N/A   Clear
5:55 AM 69.8 °F - 69.8 °F 100% 30.08 in - SSW 4.6 mph - N/A   Partly Cloudy
6:15 AM 69.8 °F - 69.8 °F 100% 30.09 in - South 3.5 mph - N/A   Partly Cloudy
6:35 AM 69.8 °F - 69.8 °F 100% 30.09 in - Calm Calm - N/A   Partly Cloudy
6:55 AM 69.8 °F - 69.8 °F 100% 30.10 in - South 3.5 mph - N/A   Light Drizzle
7:15 AM 69.8 °F - 69.8 °F 100% 30.11 in - SW 3.5 mph - N/A Thunderstorm Thunderstorm
7:35 AM 69.8 °F - 69.8 °F 100% 30.12 in - SSW 3.5 mph - N/A   Clear
7:55 AM 69.8 °F - 69.8 °F 100% 30.13 in - SSW 3.5 mph - N/A   Clear
8:15 AM 69.8 °F - 69.8 °F 100% 30.13 in - South 3.5 mph - N/A Rain Light Rain
8:35 AM 69.8 °F - 69.8 °F 100% 30.14 in - Calm Calm - N/A Rain Light Rain
9:15 AM 71.6 °F - 71.6 °F 100% 30.16 in - Calm Calm - N/A Rain Rain
9:35 AM 71.6 °F - 71.6 °F 100% 30.16 in - South 3.5 mph - N/A Thunderstorm Unknown
9:55 AM 71.6 °F - 71.6 °F 100% 30.16 in - Calm Calm - 0.01 in   Partly Cloudy
10:15 AM 73.4 °F - 71.6 °F 94% 30.15 in - Calm Calm - N/A Thunderstorm Unknown
10:35 AM 75.2 °F - 73.4 °F 94% 30.15 in - Calm Calm - N/A Thunderstorm Thunderstorm
10:55 AM 75.2 °F - 73.4 °F 94% 30.14 in - Calm Calm - N/A   Partly Cloudy
11:15 AM 77.0 °F - 73.4 °F 89% 30.14 in - Calm Calm - N/A   Partly Cloudy
11:35 AM 77.0 °F - 73.4 °F 89% 30.13 in - South 5.8 mph - N/A   Scattered Clouds
11:55 AM 78.8 °F - 71.6 °F 78% 30.12 in - South 5.8 mph - N/A   Scattered Clouds
12:15 PM 78.8 °F - 73.4 °F 83% 30.12 in - SSW 5.8 mph - N/A   Partly Cloudy
12:35 PM 78.8 °F - 73.4 °F 83% 30.12 in - South 5.8 mph - N/A   Partly Cloudy
12:55 PM 80.6 °F 85.4 °F 73.4 °F 79% 30.11 in - South 6.9 mph - N/A Thunderstorm Thunderstorm
1:15 PM 80.6 °F 84.6 °F 71.6 °F 74% 30.10 in - Calm Calm - N/A   Partly Cloudy
1:35 PM 80.6 °F 85.4 °F 73.4 °F 79% 30.09 in - SSW 4.6 mph - N/A   Clear
1:55 PM 80.6 °F 85.4 °F 73.4 °F 79% 30.08 in - South 4.6 mph - N/A Thunderstorm Thunderstorm
2:35 PM 82.4 °F 87.2 °F 71.6 °F 70% 30.06 in - WSW 3.5 mph - N/A   Partly Cloudy
2:55 PM 82.4 °F 87.2 °F 71.6 °F 70% 30.04 in - Calm Calm - N/A Thunderstorm Thunderstorm
3:15 PM 82.4 °F 88.2 °F 73.4 °F 74% 30.04 in - Calm Calm - N/A   Partly Cloudy
3:35 PM 82.4 °F 88.2 °F 73.4 °F 74% 30.04 in - SSE 3.5 mph - N/A   Mostly Cloudy
4:15 PM 84.2 °F 90.9 °F 73.4 °F 70% 30.03 in - South 6.9 mph - N/A Thunderstorm Thunderstorm
4:35 PM 84.2 °F 90.9 °F 73.4 °F 70% 30.03 in - SSE 5.8 mph - N/A Thunderstorm Thunderstorm
4:55 PM 84.2 °F 90.9 °F 73.4 °F 70% 30.02 in - Calm Calm - N/A   Clear
5:15 PM 82.4 °F 88.2 °F 73.4 °F 74% 30.02 in - Calm Calm - N/A   Scattered Clouds
5:35 PM 82.4 °F 88.2 °F 73.4 °F 74% 30.03 in - Calm Calm - N/A   Partly Cloudy
5:55 PM 82.4 °F 88.2 °F 73.4 °F 74% 30.03 in - South 4.6 mph - N/A   Clear
6:15 PM 80.6 °F 86.2 °F 75.2 °F 84% 30.03 in - Calm Calm - N/A   Clear
6:35 PM 80.6 °F 86.2 °F 75.2 °F 84% 30.04 in - Calm Calm - N/A   Light Drizzle
6:55 PM 80.6 °F 86.2 °F 75.2 °F 84% 30.06 in - South 17.3 mph 23.0 mph N/A Thunderstorm Thunderstorm
7:15 PM 75.2 °F - 69.8 °F 83% 30.09 in - SSW 11.5 mph 24.2 mph 0.02 in Rain Heavy Rain
7:35 PM 71.6 °F - 69.8 °F 94% 30.10 in - SW 4.6 mph 16.1 mph 0.19 in Rain Heavy Rain
7:55 PM 71.6 °F - 69.8 °F 94% 30.08 in - SW 4.6 mph - 0.25 in Rain Light Rain
8:15 PM 71.6 °F - 69.8 °F 94% 30.08 in - SSW 3.5 mph - 0.06 in Rain Rain
8:35 PM 71.6 °F - 69.8 °F 94% 30.09 in - Calm Calm - 0.13 in Rain Rain
8:55 PM 69.8 °F - 69.8 °F 100% 30.10 in - SW 4.6 mph - 0.18 in Rain Rain
9:15 PM 69.8 °F - 69.8 °F 100% 30.10 in - SSW 3.5 mph - 0.01 in Rain Light Rain
9:35 PM 71.6 °F - 69.8 °F 94% 30.11 in - SSW 4.6 mph - 0.02 in   Partly Cloudy
9:55 PM 71.6 °F - 71.6 °F 100% 30.10 in - Calm Calm - 0.02 in   Partly Cloudy
10:15 PM 71.6 °F - 71.6 °F 100% 30.09 in - Calm Calm - N/A   Light Drizzle
10:35 PM 71.6 °F - 71.6 °F 100% 30.09 in - Calm Calm - N/A   Clear
10:55 PM 69.8 °F - 69.8 °F 100% 30.10 in - Calm Calm - N/A   Clear
11:15 PM 69.8 °F - 69.8 °F 100% 30.08 in - ESE 3.5 mph - N/A   Clear
11:35 PM 69.8 °F - 69.8 °F 100% 30.08 in - ESE 3.5 mph - N/A   Partly Cloudy
11:55 PM 69.8 °F - 69.8 °F 100% 30.07 in - Calm Calm - N/A   Mostly Cloudy